Location: Mizzole
(45.4833°N, 11.0500°E)
Time: 12:02:04
(UTC+00:00)

SPOT 3 Rocket - Pass Details

Date: 21 October 2019
Orbit: 779 x 794 km, 98.8° (Epoch: 21 November)

Event Time Altitude Azimuth Distance (km) Brightness Sun altitude
Exits shadow 18:26:37 40° 46° (NE) 1,160 4.1 -22.7°
Drops below altitude 10° 18:30:47 10° 358° (N) 2,368 6.1 -23.5°
Sets 18:33:13 0° 352° (N) 3,303 7.0 -23.9°
